Terug naar catalogus

STARLINK-31512

ActiefCommunicatieVLEO
NORAD 59500·PAYLOAD·🇺🇸 United States

Gelanceerd Apr 13, 2024 vanaf Cape Canaveral Space Force Station

Loading…

Volgende Passages (komende 24 uur)

TLE

VersSource: CelesTrak SupGP

Epoch: Sep 15, 2026, 03:07 UTC

1 59500C 24071S   26258.13034722  .00034906  00000+0  12641-2 0  2583
2 59500  43.0022 309.6509 0001361 264.2826 132.8328 15.27565920    15

Volg STARLINK-31512 in realtime met AllMySat

Download on the App Store